EW4092 Weather Reports


time (UTC)temp
F
wind
direction
speed
knots
gust
knots
rain 1hr
in
rain 24hr
in
rain mn
in
humidity
%
barometer
mb
20260508014511 77 61 0.9 3.5 0.00 0.00 0.00 26 1011.8
20260508013009 77 39 0.9 3.5 0.00 0.00 0.00 25 1011.8
20260508011508 78 70 0.0 4.3 0.00 0.00 0.00 24 1011.8
20260508010007 79 49 0.0 3.5 0.00 0.00 0.00 23 1011.9
20260508004506 79 42 1.7 2.6 0.00 0.00 0.00 22 1011.9
20260508003005 79 65 0.0 3.5 0.00 0.00 0.00 21 1012.0
20260508001505 79 351 0.0 5.2 0.00 0.00 0.00 22 1012.1
20260508000004 79 104 1.7 3.5 0.00 0.00 0.00 21 1012.1
20260507234501 80 57 2.6 5.2 0.00 0.00 0.00 20 1012.3
20260507233100 78 52 0.9 4.3 0.00 0.00 0.00 25 1012.4
20260507231611 79 277 0.0 4.3 0.00 0.00 0.00 21 1012.5
20260507230057 79 79 0.0 2.6 0.00 0.00 0.00 22 1012.7
20260507224604 78 44 0.9 5.2 0.00 0.00 0.00 23 1013.0
20260507223050 77 64 0.9 6.1 0.00 0.00 0.00 24 1013.1
20260507221548 77 4 1.7 4.3 0.00 0.00 0.00 24 1013.2
20260507220047 77 13 2.6 7.0 0.00 0.00 0.00 24 1013.5
20260507214545 77 326 0.9 6.1 0.00 0.00 0.00 25 1013.6
20260507213055 77 72 1.7 7.0 0.00 0.00 0.00 24 1013.7
20260507211542 77 56 3.5 7.0 0.00 0.00 0.00 25 1013.9
20260507210045 76 360 1.7 5.2 0.00 0.00 0.00 26 1014.0
20260507204548 76 294 1.7 4.3 0.00 0.00 0.00 28 1014.2
20260507203036 75 122 0.9 5.2 0.00 0.00 0.00 26 1014.4
20260507201537 74 232 2.6 4.3 0.00 0.00 0.00 26 1014.5
20260507200036 73 219 1.7 5.2 0.00 0.00 0.00 27 1014.6
20260507194531 73 330 3.5 6.1 0.00 0.00 0.00 26 1014.7
20260507193029 73 252 1.7 5.2 0.00 0.00 0.00 26 1014.8
20260507191530 72 29 0.9 3.5 0.00 0.00 0.00 27 1014.9
20260507190036 73 85 1.7 3.5 0.00 0.00 0.00 27 1015.0
20260507184535 72 100 0.9 3.5 0.00 0.00 0.00 26 1015.1
20260507183026 71 162 0.0 2.6 0.00 0.00 0.00 27 1015.2
20260507181518 69 56 0.9 4.3 0.00 0.00 0.00 26 1015.3
20260507180016 69 128 0.9 3.5 0.00 0.00 0.00 31 1015.4
20260507174514 68 93 0.9 2.6 0.00 0.00 0.00 33 1015.5
20260507173013 66 342 0.9 5.2 0.00 0.00 0.00 36 1015.6
20260507171508 65 153 0.9 4.3 0.00 0.00 0.00 38 1015.6
20260507170007 65 191 0.9 4.3 0.00 0.00 0.00 39 1015.6
20260507164503 63 240 1.7 4.3 0.00 0.00 0.00 38 1015.7
20260507163105 63 105 0.0 4.3 0.00 0.00 0.00 41 1015.9
20260507161609 63 210 1.7 6.1 0.00 0.00 0.00 42 1016.0
20260507154554 62 154 2.6 8.7 0.00 0.00 0.00 43 1015.9
20260507153056 60 162 2.6 9.6 0.00 0.00 0.00 45 1015.9
20260507151550 60 152 2.6 12.2 0.00 0.00 0.00 47 1016.0
20260507150052 59 114 4.3 10.4 0.00 0.00 0.00 47 1015.7
20260507144550 58 140 4.3 13.9 0.00 0.00 0.00 48 1015.6
20260507143044 58 170 3.5 9.6 0.00 0.00 0.00 50 1015.6
20260507141542 57 222 1.7 9.6 0.00 0.00 0.00 52 1015.3
20260507134541 55 202 0.9 7.0 0.00 0.00 0.00 55 1015.3
20260507133041 54 203 2.6 6.1 0.00 0.00 0.00 56 1015.3
20260507131540 54 121 2.6 10.4 0.00 0.00 0.00 57 1015.1
20260507130049 53 131 0.9 7.0 0.00 0.00 0.00 58 1015.2
20260507124543 54 104 0.9 4.3 0.00 0.00 0.00 56 1015.2
20260507123043 54 131 2.6 7.8 0.00 0.00 0.00 57 1015.0
20260507121540 53 102 0.0 5.2 0.00 0.00 0.00 60 1015.0
20260507120029 54 79 0.9 5.2 0.00 0.00 0.00 59 1015.1
20260507114527 55 118 0.0 3.5 0.00 0.00 0.00 57 1015.0
20260507113033 55 108 0.9 7.8 0.00 0.00 0.00 57 1015.0
20260507111525 56 135 1.7 6.1 0.00 0.00 0.00 57 1015.1
20260507110027 56 117 1.7 5.2 0.00 0.00 0.00 57 1015.0
20260507104519 57 105 1.7 6.1 0.00 0.00 0.00 56 1014.9
20260507103018 57 159 0.9 6.1 0.00 0.00 0.00 56 1014.8
20260507101521 57 163 1.7 6.1 0.00 0.00 0.00 57 1014.8
20260507100021 57 270 1.7 5.2 0.00 0.00 0.00 57 1015.0
20260507094512 58 122 0.9 6.1 0.00 0.00 0.00 55 1014.8
20260507093022 58 115 3.5 7.8 0.00 0.00 0.00 56 1014.7
20260507091509 58 117 0.9 7.0 0.00 0.00 0.00 57 1014.7
20260507090006 58 100 2.6 8.7 0.00 0.00 0.00 56 1014.5
20260507084502 59 165 0.9 7.8 0.00 0.00 0.00 55 1014.4
20260507083104 59 135 1.7 9.6 0.00 0.00 0.00 56 1014.2
20260507081558 59 156 1.7 5.2 0.00 0.00 0.00 56 1014.0
20260507080131 59 212 1.7 9.6 0.00 0.00 0.00 56 1014.0
20260507074601 60 177 2.6 6.1 0.00 0.00 0.00 54 1014.0
20260507073059 61 163 4.3 9.6 0.00 0.00 0.00 52 1013.8
20260507071600 61 160 1.7 7.8 0.00 0.00 0.00 52 1013.9
20260507070045 60 135 2.6 6.1 0.00 0.00 0.00 54 1014.0
20260507064550 60 169 3.5 7.0 0.00 0.00 0.00 54 1014.2
20260507063043 61 86 2.6 8.7 0.00 0.00 0.00 53 1014.2
20260507061543 61 233 2.6 7.8 0.00 0.00 0.00 54 1014.2
20260507060042 61 188 0.9 3.5 0.00 0.00 0.00 54 1014.4
20260507054549 62 177 0.0 5.2 0.00 0.00 0.00 51 1014.4
20260507053046 63 93 1.7 7.0 0.00 0.00 0.00 48 1014.3
20260507051540 64 91 1.7 6.1 0.00 0.00 0.00 46 1014.1
20260507050039 65 109 2.6 7.8 0.00 0.00 0.00 44 1014.3
20260507044539 67 139 0.9 7.0 0.00 0.00 0.00 41 1014.2
20260507043040 68 259 0.0 7.8 0.00 0.00 0.00 38 1014.1
20260507041536 69 159 0.0 4.3 0.00 0.00 0.00 38 1014.1
20260507040035 70 111 2.6 8.7 0.00 0.00 0.00 34 1013.9
20260507034534 70 108 4.3 7.0 0.00 0.00 0.00 33 1013.5
20260507033037 71 72 3.5 7.8 0.00 0.00 0.00 33 1013.5
20260507031534 71 98 3.5 11.3 0.00 0.00 0.00 32 1013.3
20260507030033 72 103 4.3 9.6 0.00 0.00 0.00 31 1013.2
20260507024534 74 94 6.1 10.4 0.00 0.00 0.00 30 1013.2
20260507023031 74 135 5.2 13.9 0.00 0.00 0.00 29 1013.0
20260507021531 74 124 10.4 17.4 0.00 0.00 0.00 28 1012.9
20260507020033 74 103 7.8 19.1 0.00 0.00 0.00 28 1012.9